GW1401 Weather Reports


Display with metric or nautical units.
time (UTC)temp
F
wind
direction
speed
MPH
gust
MPH
rain 1hr
in
rain 24hr
in
rain mn
in
humidity
%
barometer
mb
20260504060132 57 131 1.0 2.0 0.00 0.00 0.00 63 1015.8
20260504050600 55 158 2.0 2.0 0.00 0.00 0.00 66 1016.7
20260504045554 54 171 0.0 1.0 0.00 0.00 0.00 68 1016.7
20260504045049 54 135 0.0 0.0 0.00 0.00 0.00 69 1016.9
20260504044547 54 146 0.0 1.0 0.00 0.00 0.00 69 1016.7
20260504044043 54 98 0.0 0.0 0.00 0.00 0.00 69 1016.7
20260504043540 54 143 0.0 1.0 0.00 0.00 0.00 69 1016.6
20260504043038 54 145 0.0 0.0 0.00 0.00 0.00 68 1016.7
20260504042535 54 142 0.0 3.0 0.00 0.00 0.00 69 1016.8
20260504042032 55 135 0.0 0.0 0.00 0.00 0.00 69 1016.6
20260504041527 55 144 0.0 1.0 0.00 0.00 0.00 68 1016.8
20260504041024 55 268 1.0 2.0 0.00 0.00 0.00 67 1017.1
20260504040521 55 139 0.0 0.0 0.00 0.00 0.00 67 1016.8
20260504040018 55 132 0.0 2.0 0.00 0.00 0.00 67 1017.0
20260504035515 55 143 0.0 0.0 0.00 0.00 0.00 66 1017.0
20260504035011 55 146 0.0 1.0 0.00 0.00 0.00 67 1016.9
20260504034509 55 139 0.0 2.0 0.00 0.00 0.00 66 1017.0
20260504034006 54 140 0.0 2.0 0.00 0.00 0.00 68 1017.2
20260504033504 54 119 0.0 1.0 0.00 0.00 0.00 71 1017.3
20260504033001 53 125 1.0 1.0 0.00 0.00 0.00 73 1017.0
20260504032457 52 132 0.0 0.0 0.00 0.00 0.00 74 1017.1
20260504031954 51 119 0.0 0.0 0.00 0.00 0.00 78 1017.3
20260504031451 50 127 0.0 0.0 0.00 0.00 0.00 84 1017.3
20260504030948 50 125 0.0 0.0 0.00 0.00 0.00 87 1017.4
20260504030445 49 118 0.0 0.0 0.00 0.00 0.00 87 1017.4
20260504025940 49 118 0.0 0.0 0.00 0.00 0.00 86 1017.4
20260504025437 49 118 0.0 0.0 0.00 0.00 0.00 86 1017.6
20260504024935 49 118 0.0 0.0 0.00 0.00 0.00 86 1017.6
20260504024432 49 118 0.0 0.0 0.00 0.00 0.00 85 1017.6
20260504023929 49 118 0.0 0.0 0.00 0.00 0.00 85 1017.7
20260504023425 49 118 0.0 0.0 0.00 0.00 0.00 85 1017.5
20260504022921 49 118 0.0 0.0 0.00 0.00 0.00 85 1017.6
20260504022417 49 118 0.0 0.0 0.00 0.00 0.00 85 1017.6
20260504021914 50 122 0.0 0.0 0.00 0.00 0.00 84 1017.5
20260504021411 49 122 0.0 0.0 0.00 0.00 0.00 84 1017.6
20260504020909 50 122 0.0 0.0 0.00 0.00 0.00 84 1017.6
20260504020405 50 118 0.0 0.0 0.00 0.00 0.00 82 1017.9
20260504015901 50 118 0.0 0.0 0.00 0.00 0.00 82 1017.8
20260504015357 50 117 0.0 0.0 0.00 0.00 0.00 81 1017.7
20260504014853 50 119 0.0 0.0 0.00 0.00 0.00 80 1017.8
20260504014349 51 117 0.0 0.0 0.00 0.00 0.00 79 1017.7
20260504013847 51 118 0.0 0.0 0.00 0.00 0.00 77 1017.5
20260504013345 52 118 0.0 0.0 0.00 0.00 0.00 76 1017.9
20260504012841 52 119 0.0 0.0 0.00 0.00 0.00 73 1017.7
20260504012339 53 118 0.0 0.0 0.00 0.00 0.00 72 1017.7
20260504011837 53 118 0.0 0.0 0.00 0.00 0.00 70 1017.8
20260504011333 54 117 0.0 0.0 0.00 0.00 0.00 70 1018.0
20260504010829 55 123 0.0 0.0 0.00 0.00 0.00 66 1017.8
20260504010325 56 124 0.0 0.0 0.00 0.00 0.00 64 1017.7
20260504005821 57 117 0.0 0.0 0.00 0.00 0.00 60 1017.6
20260504005318 58 114 0.0 0.0 0.00 0.00 0.00 60 1017.6
20260504004816 59 117 0.0 0.0 0.00 0.00 0.00 57 1017.5
20260504004314 60 130 0.0 0.0 0.00 0.00 0.00 56 1017.2
20260504003810 60 174 0.0 1.0 0.00 0.00 0.00 51 1017.3
20260504003307 61 131 0.0 1.0 0.00 0.00 0.00 51 1017.2
20260504002803 62 136 0.0 3.0 0.00 0.00 0.00 50 1016.9
20260504002300 62 121 0.0 1.0 0.00 0.00 0.00 49 1017.0
20260504001758 62 225 2.0 3.0 0.00 0.00 0.00 48 1017.0
20260504001255 62 135 2.0 5.0 0.00 0.00 0.00 47 1016.8
20260504000752 63 144 2.0 5.0 0.00 0.00 0.00 47 1016.8
20260504000248 63 175 4.0 7.0 0.00 0.00 0.00 46 1017.2
20260503235746 64 145 3.0 5.0 0.00 0.00 0.00 46 1017.1
20260503235243 64 166 5.0 6.0 0.00 0.00 0.00 46 1017.2
20260503234741 64 128 1.0 7.0 0.00 0.00 0.00 45 1016.9
20260503234239 64 161 0.0 2.0 0.00 0.00 0.00 45 1017.2
20260503233736 64 159 3.0 6.0 0.00 0.00 0.00 44 1017.2
20260503233232 64 252 1.0 5.0 0.00 0.00 0.00 44 1017.1
20260503232729 64 82 2.0 7.0 0.00 0.00 0.00 44 1017.0
20260503232226 65 149 4.0 5.0 0.00 0.00 0.00 44 1016.9
20260503231724 65 102 5.0 6.0 0.00 0.00 0.00 43 1017.2
20260503231220 65 196 5.0 7.0 0.00 0.00 0.00 43 1017.1
20260503230717 66 139 0.0 6.0 0.00 0.00 0.00 43 1017.2
20260503230214 66 131 3.0 5.0 0.00 0.00 0.00 42 1017.2
20260503225711 65 171 2.0 7.0 0.00 0.00 0.00 42 1017.3
20260503225206 65 160 5.0 7.0 0.00 0.00 0.00 43 1017.3
20260503224703 66 288 3.0 7.0 0.00 0.00 0.00 40 1017.5
20260503224201 66 144 4.0 8.0 0.00 0.00 0.00 39 1017.6
20260503223658 66 164 1.0 3.0 0.00 0.00 0.00 40 1017.8
20260503223155 66 169 2.0 8.0 0.00 0.00 0.00 40 1017.8
20260503222652 66 230 4.0 10.0 0.00 0.00 0.00 40 1017.8
20260503222150 65 146 5.0 8.0 0.00 0.00 0.00 40 1017.9
20260503221648 65 147 3.0 5.0 0.00 0.00 0.00 39 1018.0
20260503221145 65 152 2.0 5.0 0.00 0.00 0.00 38 1018.0
20260503220642 66 227 3.0 7.0 0.00 0.00 0.00 38 1018.2
20260503220138 66 124 1.0 8.0 0.00 0.00 0.00 39 1018.3
20260503215636 65 252 2.0 7.0 0.00 0.00 0.00 39 1018.4
20260503215132 65 129 1.0 8.0 0.00 0.00 0.00 40 1018.2
20260503214631 66 158 2.0 6.0 0.00 0.00 0.00 38 1018.4
20260503214126 67 336 2.0 5.0 0.00 0.00 0.00 36 1018.7
20260503213620 69 160 2.0 3.0 0.00 0.00 0.00 38 1018.8
20260503213116 67 152 1.0 5.0 0.00 0.00 0.00 37 1018.9
20260503212614 67 135 0.0 11.0 0.00 0.00 0.00 37 1018.9
20260503212111 66 238 4.0 14.0 0.00 0.00 0.00 36 1019.1
20260503211609 66 212 2.0 7.0 0.00 0.00 0.00 37 1019.3
20260503211104 67 130 5.0 11.0 0.00 0.00 0.00 36 1019.4
20260503210601 68 174 3.0 6.0 0.00 0.00 0.00 35 1019.1
20260503210056 67 79 3.0 11.0 0.00 0.00 0.00 36 1018.9
20260503205553 66 125 2.0 9.0 0.00 0.00 0.00 37 1018.9
20260503205049 67 130 3.0 6.0 0.00 0.00 0.00 36 1018.8
20260503204547 66 193 4.0 6.0 0.00 0.00 0.00 36 1019.0
20260503204044 66 263 4.0 10.0 0.00 0.00 0.00 36 1019.4
20260503203541 66 155 5.0 7.0 0.00 0.00 0.00 35 1019.4
20260503203038 66 236 2.0 6.0 0.00 0.00 0.00 35 1019.6
20260503202536 66 137 4.0 8.0 0.00 0.00 0.00 35 1019.6
20260503202033 67 188 5.0 10.0 0.00 0.00 0.00 34 1019.6
20260503201531 67 170 2.0 7.0 0.00 0.00 0.00 34 1019.6
20260503201028 66 175 0.0 7.0 0.00 0.00 0.00 37 1019.8
20260503200524 66 158 0.0 6.0 0.00 0.00 0.00 37 1019.8
20260503200021 66 272 8.0 10.0 0.00 0.00 0.00 34 1020.1
20260503195518 66 147 2.0 7.0 0.00 0.00 0.00 37 1020.2
20260503195015 67 152 2.0 11.0 0.00 0.00 0.00 36 1020.0
20260503194513 65 174 1.0 5.0 0.00 0.00 0.00 39 1020.0
20260503194012 65 123 3.0 7.0 0.00 0.00 0.00 36 1020.3
20260503193509 66 132 2.0 9.0 0.00 0.00 0.00 38 1020.6
20260503193004 66 265 3.0 8.0 0.00 0.00 0.00 33 1021.0
20260503192500 65 152 2.0 13.0 0.00 0.00 0.00 36 1020.9
20260503191956 66 275 2.0 5.0 0.00 0.00 0.00 37 1020.9
20260503191454 65 156 1.0 5.0 0.00 0.00 0.00 37 1021.1
20260503190950 66 227 5.0 10.0 0.00 0.00 0.00 34 1021.2
20260503190447 66 294 2.0 3.0 0.00 0.00 0.00 38 1021.3
20260503185944 65 151 4.0 8.0 0.00 0.00 0.00 35 1021.2
20260503185441 66 283 8.0 11.0 0.00 0.00 0.00 36 1021.4
20260503184940 65 158 5.0 7.0 0.00 0.00 0.00 34 1021.5
20260503184437 64 209 1.0 6.0 0.00 0.00 0.00 38 1021.7
20260503183933 64 169 3.0 11.0 0.00 0.00 0.00 36 1021.6
20260503183430 65 99 4.0 6.0 0.00 0.00 0.00 33 1021.9
20260503182927 65 150 4.0 9.0 0.00 0.00 0.00 37 1021.9
20260503182426 65 169 3.0 7.0 0.00 0.00 0.00 38 1021.9
20260503181923 65 155 4.0 6.0 0.00 0.00 0.00 37 1022.1
20260503181420 65 123 1.0 6.0 0.00 0.00 0.00 40 1022.1
20260503180916 64 141 2.0 6.0 0.00 0.00 0.00 38 1022.3
20260503180414 63 252 6.0 10.0 0.00 0.00 0.00 37 1022.3
20260503175910 63 132 5.0 9.0 0.00 0.00 0.00 38 1022.2
20260503175409 63 144 5.0 9.0 0.00 0.00 0.00 37 1022.4
20260503174904 63 251 2.0 6.0 0.00 0.00 0.00 40 1022.2
20260503174402 63 264 4.0 8.0 0.00 0.00 0.00 37 1022.6
20260503173857 63 203 4.0 7.0 0.00 0.00 0.00 39 1022.6
20260503173353 62 122 4.0 7.0 0.00 0.00 0.00 39 1022.7
20260503172850 62 145 6.0 11.0 0.00 0.00 0.00 38 1022.8
20260503172348 62 118 3.0 11.0 0.00 0.00 0.00 39 1022.9
20260503171844 61 129 3.0 7.0 0.00 0.00 0.00 38 1023.1
20260503171341 62 76 3.0 6.0 0.00 0.00 0.00 40 1022.8
20260503170838 62 167 4.0 10.0 0.00 0.00 0.00 40 1023.2
20260503170334 62 123 2.0 8.0 0.00 0.00 0.00 41 1023.1
20260503150727 59 146 3.0 6.0 0.00 0.00 0.00 51 1024.5
20260503150223 58 187 2.0 7.0 0.00 0.00 0.00 50 1024.6
20260503140147 53 86 1.0 7.0 0.00 0.00 0.00 57 1024.5
20260503131117 48 125 1.0 2.0 0.00 0.00 0.00 72 1025.0
20260503130614 48 142 1.0 3.0 0.00 0.00 0.00 76 1024.9
20260503130112 46 139 1.0 3.0 0.00 0.00 0.00 78 1024.7
20260503110504 31 115 0.0 0.0 0.00 0.00 0.00 99 1024.0
20260503090350 32 115 0.0 0.0 0.00 0.00 0.00 99 1023.9
20260503081317 32 115 0.0 0.0 0.00 0.00 0.00 99 1023.3
20260503080814 32 115 0.0 0.0 0.00 0.00 0.00 99 1023.4
20260503080311 32 115 0.0 0.0 0.00 0.00 0.00 99 1023.4
20260503072748 32 115 0.0 0.0 0.00 0.00 0.00 99 1023.3
20260503072245 33 115 0.0 0.0 0.00 0.00 0.00 99 1023.5
20260503071741 33 115 0.0 0.0 0.00 0.00 0.00 99 1023.4
20260503071238 33 115 0.0 0.0 0.00 0.00 0.00 99 1023.3
20260503070734 33 115 0.0 0.0 0.00 0.00 0.00 99 1023.3
20260503070232 33 115 0.0 0.0 0.00 0.00 0.00 99 1023.4